Regional Weather Roundup
Issued by NWS

Home | Current Version | Previous Version | Text Only | Print | Product List | Glossary Off
Versions: 1 2 3 4 5 6 7 8 9 10 11 12 13 14 15 16 17 18 19 20 21 22 23 24 25 26 27 28 29 30 31 32 33 34 35 36 37 38 39 40 41 42 43 44 45 46 47 48 49 50

000
ASUS43 KOAX 270302
RWRNE

WEATHER ROUNDUP FOR NEBRASKA
NATIONAL WEATHER SERVICE OMAHA NE
1000 PM CDT TUE JUL 26 2016

NOTES: SATELLITE DATA IS BEING USED TO AUGMENT CLOUD COVER ABOVE
       12000 FEET.
       "FAIR" INDICATES FEW OR NO CLOUDS BELOW 12,000 FEET WITH NO
       SIGNIFICANT WEATHER AND/OR OBSTRUCTIONS TO VISIBILITY.

  * THESE STATIONS DO NOT REPORT WEATHER SUCH AS RAIN...SNOW OR FOG.

NEZ001>004-019>022-054>056-270400-
NEBRASKA PANHANDLE

CITY           SKY/WX    TMP DP  RH WIND       PRES   REMARKS
SCOTTSBLUFF    CLOUDY    86  40  19 W6G21     29.98F
ALLIANCE       CLOUDY    71  58  63 N17G29    30.03R
CHADRON        CLOUDY    71  59  65 SE17      29.97S
SIDNEY         CLOUDY    75  50  41 SW8       30.09R
$$

NEZ057>060-069>072-079>082-270400-
SOUTHWEST NEBRASKA

CITY           SKY/WX    TMP DP  RH WIND       PRES   REMARKS
NORTH PLATTE   PTCLDY    77  65  66 SE10      29.96F
IMPERIAL       CLOUDY    79  65  62 S5        30.00R
LEXINGTON      CLOUDY    77  65  67 SE10      29.99R
MCCOOK         MOCLDY    81  64  56 SE14      29.99R
OGALLALA       CLOUDY    80  65  61 SW3       29.99R
$$

NEZ005>010-023>029-035>040-094-270400-
NORTH CENTRAL NEBRASKA

CITY           SKY/WX    TMP DP  RH WIND       PRES   REMARKS
VALENTINE      TSTM      63 N/A N/A MISG      30.00F
AINSWORTH        N/A    N/A N/A N/A NE22      30.02R
BROKEN BOW     PTCLDY    75  65  70 SE10      30.02R
O`NEILL        CLOUDY    78  65  64 SE8       30.04R
ORD            CLEAR     76  65  68 SE6       30.00R
THEDFORD       PTCLDY    79  67  66 SE10      30.00R
$$

NEZ041-046>049-061>064-073>077-083>087-270400-
SOUTH CENTRAL NEBRASKA

CITY           SKY/WX    TMP DP  RH WIND       PRES   REMARKS
GRAND ISLAND   CLEAR     76  68  76 SE8       30.01R
AURORA         PTCLDY    73  70  88 SE7       30.01R
HASTINGS       CLEAR     78  64  61 S8        30.01S
HEBRON         CLEAR     74  68  82 S5        30.01R
HOLDREGE       CLOUDY    74  65  74 SE7       30.00S
KEARNEY *      PTCLDY    73  66  78 SE10      30.00F
YORK           CLOUDY    75  64  69 SE12      30.02R
$$

NEZ011>018-030>034-042>045-270400-
NORTHEAST NEBRASKA

CITY           SKY/WX    TMP DP  RH WIND       PRES   REMARKS
NORFOLK        CLEAR     71  65  81 SE6       30.02R
ALBION         CLEAR     73  65  78 SE6       30.02R
BLAIR          CLEAR     74  67  76 CALM      30.03S
FREMONT        CLEAR     75  65  71 SE6       30.02R
TEKAMAH        CLEAR     73  67  81 SE6       30.01R
WAYNE          CLEAR     70  67  91 SE3       30.02S
$$

NEZ050>053-065>068-078-088>093-270400-
SOUTHEAST NEBRASKA

CITY           SKY/WX    TMP DP  RH WIND       PRES   REMARKS
LINCOLN        PTCLDY    79  64  60 SE8       30.02R
OMAHA EPPLEY   PTCLDY    77  68  73 E7        30.01R
BEATRICE       PTCLDY    76  66  71 SE7       30.00S
FALLS CITY     PTCLDY    76  69  79 CALM      29.99S
NEBRASKA CITY  PTCLDY    76  66  71 SE5       30.01S
PLATTSMOUTH    CLEAR     75  68  79 E3        30.02R
$$

NEZ044-045-051>053-067-270400-
OMAHA AREA

CITY           SKY/WX    TMP DP  RH WIND       PRES   REMARKS
OMAHA EPPLEY   PTCLDY    77  68  73 E7        30.01R
BLAIR          CLEAR     74  67  76 CALM      30.03S
FREMONT        CLEAR     75  65  71 SE6       30.02R
MILLARD        CLEAR     77  68  74 CALM      30.01S
OFFUTT AFB     CLEAR     71  69  92 E5        30.01R
PLATTSMOUTH    CLEAR     75  68  79 E3        30.02R
WAHOO          FAIR      71  67  87 E3        30.02R
$$




USA.gov is the U.S. government's official web portal to all federal, state and local government web resources and services.